Voltar ao catálogo

OPS 4682 DEB

AtivoPO
NORAD 38365·DEBRIS·🇺🇸 United States

Lançado Apr 3, 1965 de Vandenberg Space Force Base

Loading…

Próximas Passagens (próximas 24 horas)

TLE

AtualizadoSource: Space-Track

Época: Sep 13, 2026, 17:44 UTC

1 38365U 65027BS  26256.73899006  .00000771  00000-0  25565-2 0  9998
2 38365  90.2473 358.0247 0027631 106.1780 254.2385 12.99324645643819

Acompanhe OPS 4682 DEB em tempo real com AllMySat

Download on the App Store